www.pogodaiklimat.ru

Погода и климат >> Архив погоды >> Россия >> Крым >> Симферополь


АРХИВ ПОГОДЫ в Симферополе

Время (UTC), дата Ветер
(напр.,м/с)
 
Видим.   Явления Облачность Т
(С)
Тd
(С)
f
(%)
Тe
(С)
Тes
(С)
Комфортность P
(гПа)
Po
(гПа)
Тmin
(С)
Tmax
(С)
R
(мм)
R24
(мм)
S
(см)
09 19.05 З 3 10 км 10/0
[Ac trans Ci fib]
+23.6 +11.3 46 +25 +32 комфорт 1014.2 993.4
12 19.05 З 5 10 км 10/1 1500 м
[Sc Ac und]
+21.1 +13.3 61 +23 +25 комфорт 1014.8 993.8
15 19.05 С 3 10 км в посл. час ливневой дождь 10/3 1000 м
[Cb calv Ac lent]
+20.0 +16.2 79 +23 +23 комфорт 1013.6 992.6 0.3
18 19.05 СВ 2 10 км {ливн. осадки} 10/3 1000 м
[Cb calv Ac und]
+18.0 +13.9 77 +19 +19 тепло 1014.2 993.0 +24.9 0.3
21 19.05 В 5 10 км 3/0
[Ac trans]
+16.3 +13.2 82 +15 +15 тепло 1013.7 992.4
00 20.05 СВ 1 10 км 4/0
[Ac trans]
+13.1 +12.6 97 +13 +13 тепло 1014.1 992.6
03 20.05 В 2 10 км 8/1 300 м
[St Ac trans]
+14.7 +13.1 90 +14 +15 по сезону 1013.9 992.5 +12.7
06 20.05 СВ 3 10 км 8/0
[Ac trans Ci fib]
+19.8 +14.6 72 +22 +27 комфорт 1013.7 992.7 +12.7
09 20.05 З 4 10 км 10/8 1320 м
[Cb calv Ci fib]
+20.6 +14.0 66 +23 +25 комфорт 1014.4 993.4
12 20.05 З 4 10 км {ливн. осадки} 8/5 1200 м
[Cb calv Ci sp]
+22.6 +14.2 59 +26 +30 жарко 1013.7 992.9
15 20.05 З 5 10 км 9/9 1350 м
[Cb calv]
+20.2 +12.9 63 +22 +22 комфорт 1014.1 993.1 0.3
18 20.05 ЮЗ 3 10 км 8/3 1500 м
[Sc Ac trans]
+16.5 +13.4 82 +16 +16 по сезону 1015.8 994.5 +23.3 0.3
21 20.05 Ю 3 10 км ясно +13.7 +12.4 92 +12 +12 по сезону 1015.6 994.1
00 21.05 штиль 0 10 км 5/5 630 м
[Sc]
+12.0 +11.2 95 +11 +11 по сезону 1016.5 994.8
03 21.05 В 2 10 км {туман} 9/9 300 м
[St]
+14.8 +13.8 94 +14 +14 по сезону 1017.3 995.8 +11.8
06 21.05 С 5 10 км {туман} 3/3 300 м
[St]
+18.0 +14.1 78 +18 +21 тепло 1018.2 997.0 +11.8
09 21.05 С 4 10 км 5/5 1140 м
[Cu med, cong]
+21.1 +12.5 58 +23 +29 комфорт 1018.0 997.0
12 21.05 СВ 5 10 км 8/8 1500 м
[Cu hum]
+24.4 +11.4 44 +26 +27 жарко 1017.6 996.8
15 21.05 СВ 6 10 км 8/5 1500 м
[Sc Ci fib]
+22.7 +10.5 46 +25 +25 комфорт 1017.4 996.5
18 21.05 СВ 3 10 км 3/0
[Ac trans]
+18.0 +12.2 69 +18 +18 тепло 1018.9 997.6 +25.1
21 21.05 В 4 10 км ясно +17.3 +11.8 70 +17 +17 тепло 1019.2 997.9
00 22.05 СВ 2 10 км ясно +13.7 +10.7 82 +13 +13 тепло 1019.8 998.2
03 22.05 В 4 10 км 1/0
[Ac trans]
+13.3 +11.2 87 +12 +12 по сезону 1019.5 997.9 +12.1
06 22.05 СВ 7 10 км ясно +21.5 +11.8 54 +24 +26 комфорт 1019.4 998.4 +12.1
09 22.05 СВ 7-12
{12}
10 км 3/3 1380 м
[Cu hum]
+24.8 +12.1 45 +26 +30 жарко 1019.2 998.4
12 22.05 СВ 6-10
{12}
10 км 3/3 1500 м
[Cu med, cong]
+26.9 +11.0 37 +28 +32 жарко 1018.3 997.7
15 22.05 СВ 6
{10}
10 км 1/1 1500 м
[Sc diur, vesp]
+25.9 +10.9 39 +27 +28 жарко 1018.0 997.3
18 22.05 В 4 10 км 4/1 1500 м
[Sc Ci fib]
+20.1 +12.8 63 +22 +22 комфорт 1019.4 998.3 +27.5
21 22.05 В 3 10 км ясно +16.9 +12.6 76 +17 +17 тепло 1019.8 998.4
00 23.05 В 4 10 км 5/0
[Ci fib]
+15.7 +12.3 80 +15 +15 тепло 1019.6 998.1
03 23.05 В 4 10 км 3/0
[Ci fib]
+15.9 +11.1 73 +15 +15 по сезону 1019.5 998.1 +14.1
06 23.05 СВ 4 10 км 6/0
[Ci fib]
+24.3 +9.5 39 +25 +30 комфорт 1019.2 998.3 +14.1
09 23.05 СВ 7-10
{10}
10 км 4/1 1000 м
[Cb calv Ac trans]
+27.7 +13.3 41 +29 +33 жарко 1018.2 997.6
12 23.05 СВ 6
{10}
10 км 9/9 1500 м
[Cb cap]
+27.6 +14.3 44 +30 +30 жарко 1017.1 996.5
15 23.05 ЮВ 3
{10}
10 км 10/3 1000 м
[Cb calv Ac trans Ci ing]
+24.4 +16.1 60 +28 +29 душно 1016.7 996.0
18 23.05 СВ 3 10 км 5/0
[Ac trans Ci fib]
+20.4 +15.2 72 +23 +23 комфорт 1016.9 995.9 +29.6
21 23.05 СВ 3 10 км ясно +18.0 +15.1 83 +18 +18 тепло 1016.8 995.6
00 24.05 В 4 10 км 1/0
[Ac trans]
+17.0 +15.0 88 +17 +17 тепло 1016.0 994.7
03 24.05 В 3 10 км 4/0
[Ac cast]
+18.4 +15.3 82 +19 +19 тепло 1015.1 994.0 +15.0
06 24.05 СВ 6 10 км 4/1 1000 м
[Cb calv Ac trans]
+23.5 +16.8 66 +27 +30 душно 1014.9 994.1 +15.0
09 24.05 СВ 7-12
{12}
10 км 4/4 1200 м
[Cb calv]
+26.4 +16.1 53 +30 +33 душно 1014.0 993.4
12 24.05 В 6-10
{12}
10 км 6/6 1500 м
[Cb calv]
+28.6 +14.4 42 +31 +33 жарко 1012.8 992.4
15 24.05 СВ 4
{10}
10 км 4/4 1500 м
[Cb calv]
+26.3 +13.8 46 +28 +30 жарко 1011.8 991.3
18 24.05 З 1 10 км 1/0
[Ac trans]
+19.8 +17.2 85 +23 +23 комфорт 1012.8 991.8 +28.9
21 24.05 Ю 1 10 км ясно +16.7 +16.2 97 +18 +18 тепло 1012.6 991.4
00 25.05 ЮВ 2 100 м туман ?/? +16.4 +16.4 100 +16 +16 тепло 1012.1 990.9
03 25.05 В 3 10 км {туман} 10/0
[Ci fib]
+15.3 +12.6 84 +15 +15 по сезону 1012.0 990.7 +14.9 0.3
06 25.05 СВ 3 10 км {туман} 5/0
[Ci fib]
+23.0 +14.6 59 +27 +33 душно 1011.7 990.9 +14.9 0.3
09 25.05 СВ 6-12
{12}
10 км 5/5 1500 м
[Cu hum]
+27.1 +14.2 45 +29 +33 жарко 1010.8 990.3
12 25.05 СВ 8-12
{12}
10 км 5/5 1500 м
[Cu hum]
+28.5 +12.8 38 +30 +31 жарко 1010.5 990.1
15 25.05 СВ 6
{12}
10 км 6/4 1500 м
[Sc Ac trans]
+26.9 +12.2 40 +28 +29 жарко 1010.4 989.9
18 25.05 В 2 10 км 3/0
[Ac trans]
+22.7 +12.3 52 +25 +25 комфорт 1011.8 991.0 +29.7
21 25.05 СВ 3 10 км 1/0
[Ac trans]
+17.5 +12.8 74 +18 +18 тепло 1013.0 991.8
00 26.05 СВ 4 10 км 3/0
[Ci fib]
+17.4 +15.9 91 +17 +17 тепло 1013.3 992.1
03 26.05 СВ 5 10 км 10/10 420 м
[St]
+17.3 +16.0 92 +17 +17 тепло 1013.8 992.6 +16.4
06 26.05 СВ 7
{10}
10 км 10/8 570 м
[St Ci fib]
+20.7 +16.5 77 +24 +24 комфорт 1014.1 993.2 +16.4

 

Местоположение метеостанции Симферополь (Крым, Россия): широта 45.03 долгота 33.97 высота над уровнем моря 181 м.

В архиве по умолчанию представлена погода в Симферополе за последнюю неделю. Архивные данные за месяц целиком и за предыдущие месяцы, начиная с января 2011 года, Вы можете получить, выбрав интересующий диапазон дат из раскрывающегося списка и нажав кнопку "Ввод!".


*Определитесь, кто Вы:
робот инопланетянин человек

Внимание! Время в таблицах - всемирное. Для получения местного времени необходимо прибавить поправку, которая в Симферополе равна 3 ч.

Смотрите также архив погоды в соседних городах и на ближайших метеорологических станциях:

Погода в Симферополе город (Крым, Россия) (15 км)
Погода в Почтовом (Крым, Россия) (22 км)
Погода в Ангарском Перевале (Крым, Россия) (43 км)
Погода в Белогорске (Крым, Россия) (50 км)
Погода в Евпатории (Крым, Россия) (50 км)
Погода в Алуште (Крым, Россия) (52 км)
Погода в Севастополе (город Севастополь, Россия) (57 км)
Погода в Клепинино (Крым, Россия) (58 км)
Погода в Никитском саду (Крым, Россия) (61 км)
Погода в Ай-Петри (Крым, Россия) (63 км)

Пояснения к столбцам:

Ветер - указаны скорость ветра в м/с - средняя за 10 мин, порывы в срок и между сроками (в фигурных скобках) и направление, откуда дует ветер: С - северный, СВ - северо-восточный, В - восточный, ЮВ - юго-восточный, Ю - южный, ЮЗ - юго-западный, З - западный, СЗ - северо-западный.
Видимость - горизонтальная дальность видимости в метрах или километрах. При видимости от 1 до 10 км при отсутствии осадков обычно наблюдается дымка, при ухудшении видимости до 1 км и менее - туман. В сухую погоду видимость может ухудшаться дымом, пылью или мглою.
Явления - указаны атмосферные явления, наблюдавшиеся в срок или в последний час перед сроком; фигурными скобками обозначены явления, наблюдавшиеся между сроками (за 1-3 часа до срока); квадратными скобками обозначены град или гололедные отложения с указанием их диаметра в мм.
Облачность - указаны через наклонную черту общая и нижняя облачность в баллах и высота нижней границы облаков в метрах; квадратными скобками обозначены формы облаков: Ci - перистые, Cs - перисто-слоистые, Cc - перисто-кучевые, Ac - высококучевые, As - высокослоистые, Sc - слоисто-кучевые, Ns - слоисто-дождевые, Cu - кучевые, Cb - кучево-дождевые. Подробнее классификацию облаков см. в Атласе облаков (PDF).
T - Температура воздуха - температура, измеренная на высоте 2 м над землей.
Td - Температура точки росы - температура, при понижении до которой содержащийся в воздухе водяной пар достигнет насыщения.
f - Относительная влажность воздуха - влажноcть воздуха, измеренная на высоте 2 м над землей.
Te - Эффективная температура - температура, которую ощущает одетый по сезону человек в тени. Характеристика душности погоды. При расчете учитывается влияние влажности воздуха и скорости ветра на теплоощущения человека.
Tes - Эффективная температура на солнце - температура, которую ощущает человек, с поправкой на солнечный нагрев. Характеристика знойности погоды. Зависит от высоты солнца над горизонтом, облачности и скорости ветра. Ночью, в пасмурную погоду, а также при ветре 12 м/с и более поправка равна нулю.
P - Атмосферное давление - приведенное к уровню моря атмосферное давление.
Po - Атмосферное давление - измеренное на уровне метеостанции атмосферное давление.
Tmin - Минимальная температура - минимум температуры воздуха на высоте 2 м над землей.
Tmax - Максимальная температура - максимум температуры воздуха на высоте 2 м над землей.
R - Количество осадков - Количество выпавших осадков за период времени, мм. При наведении курсора мыши на число - период времени, за который выпало указанное количество осадков.
R24 - Количество осадков - Количество выпавших осадков за 24 часа, мм.
S - Снежный покров - Высота снежного покрова, см. При наведении курсора мыши на число - состояние снежного покрова и степень покрытия местности в баллах.